JET747 DTTA-DAAG

Flight info

Callsign JET747
Flight time 0h 59m
Altitude 36000
Route KEMIR2A KEMIR UA411 BJA UJ7 LIMON DCT ZEM DCT
Aircraft A20N/M-SDE2E3FGHIRWXY/LB1

Departure

Time 2026-05-09 00:08
Airport Tunis Carthage International Airport (DTTA)

Arrival

Time 2026-05-09 01:08
Airport Houari Boumediene Airport (DAAG)
Time Latitude Longitude Altitude Speed Heading
2026-05-08 23:42 36.84672 10.21892 29 ft 0 kts 199°
2026-05-08 23:55 36.84682 10.21896 29 ft 3 kts 199°
2026-05-08 23:55 36.84699 10.21904 29 ft 3 kts 199°
2026-05-08 23:56 36.84717 10.21912 29 ft 3 kts 199°
2026-05-08 23:56 36.84735 10.21919 29 ft 3 kts 180°
2026-05-08 23:56 36.84753 10.21913 29 ft 0 kts 139°
2026-05-09 00:01 36.84750 10.21917 29 ft 1 kts 139°
2026-05-09 00:01 36.84716 10.22012 29 ft 25 kts 102°
2026-05-09 00:01 36.84636 10.22104 28 ft 16 kts 188°
2026-05-09 00:01 36.84523 10.22104 28 ft 15 kts 140°
2026-05-09 00:02 36.84489 10.22221 27 ft 15 kts 120°
2026-05-09 00:02 36.84382 10.22226 27 ft 20 kts 193°
2026-05-09 00:02 36.84224 10.22184 26 ft 27 kts 193°
2026-05-09 00:02 36.84161 10.22166 26 ft 0 kts 193°
2026-05-09 00:03 36.84130 10.22157 26 ft 10 kts 193°
2026-05-09 00:03 36.84033 10.22129 28 ft 19 kts 192°
2026-05-09 00:03 36.83891 10.22109 25 ft 11 kts 149°
2026-05-09 00:03 36.83866 10.22148 25 ft 0 kts 98°
2026-05-09 00:06 36.83866 10.22149 25 ft 2 kts 97°
2026-05-09 00:07 36.83871 10.22201 25 ft 10 kts 75°
2026-05-09 00:07 36.83915 10.22304 25 ft 17 kts 50°
2026-05-09 00:07 36.84017 10.22404 25 ft 3 kts 29°
2026-05-09 00:07 36.84029 10.22409 26 ft 0 kts 11°
2026-05-09 00:08 36.84170 10.22443 25 ft 55 kts 13°
2026-05-09 00:08 36.84787 10.22616 30 ft 125 kts 12°
2026-05-09 00:08 36.85805 10.22893 250 ft 160 kts 12°
2026-05-09 00:08 36.86866 10.23191 1075 ft 148 kts 12°
2026-05-09 00:09 36.87822 10.23461 1942 ft 141 kts 11°
2026-05-09 00:09 36.88863 10.23738 2334 ft 167 kts 11°
2026-05-09 00:09 36.90096 10.24065 2639 ft 194 kts 11°
2026-05-09 00:09 36.91524 10.24280 2854 ft 225 kts 355°
2026-05-09 00:10 36.93054 10.23542 3386 ft 250 kts 319°
2026-05-09 00:10 36.93968 10.21725 4305 ft 257 kts 287°
2026-05-09 00:10 36.94506 10.19565 5351 ft 262 kts 294°
2026-05-09 00:10 36.95312 10.17484 6385 ft 266 kts 296°
2026-05-09 00:11 36.96149 10.15421 7360 ft 271 kts 295°
2026-05-09 00:11 36.96691 10.13159 8312 ft 275 kts 275°
2026-05-09 00:11 36.96515 10.10758 9267 ft 279 kts 252°
2026-05-09 00:11 36.95585 10.08639 10175 ft 286 kts 229°
2026-05-09 00:12 36.94089 10.06836 10665 ft 308 kts 223°
2026-05-09 00:12 36.92725 10.04682 11078 ft 330 kts 240°
2026-05-09 00:12 36.91709 10.02055 11779 ft 341 kts 246°
2026-05-09 00:12 36.90779 9.99297 12630 ft 347 kts 248°
2026-05-09 00:13 36.89844 9.96469 13506 ft 352 kts 248°
2026-05-09 00:13 36.88903 9.93656 14348 ft 357 kts 247°
2026-05-09 00:13 36.87916 9.90747 15194 ft 361 kts 247°
2026-05-09 00:13 36.86931 9.87874 15995 ft 366 kts 247°
2026-05-09 00:14 36.85921 9.84928 16774 ft 370 kts 248°
2026-05-09 00:14 36.85028 9.81891 17526 ft 375 kts 253°
2026-05-09 00:14 36.84509 9.78684 18244 ft 379 kts 264°
2026-05-09 00:14 36.84374 9.75368 18949 ft 383 kts 269°
2026-05-09 00:15 36.84350 9.72022 19616 ft 388 kts 270°
2026-05-09 00:15 36.84336 9.68667 20252 ft 392 kts 269°
2026-05-09 00:15 36.84310 9.65246 20875 ft 396 kts 269°
2026-05-09 00:15 36.84269 9.61790 21500 ft 400 kts 269°
2026-05-09 00:16 36.84216 9.58305 22121 ft 404 kts 269°
2026-05-09 00:16 36.84156 9.54776 22722 ft 407 kts 269°
2026-05-09 00:16 36.84090 9.51226 23282 ft 411 kts 269°
2026-05-09 00:16 36.84020 9.47649 23817 ft 414 kts 269°
2026-05-09 00:17 36.83947 9.44034 24310 ft 418 kts 268°
2026-05-09 00:17 36.83884 9.40378 24818 ft 422 kts 269°
2026-05-09 00:17 36.83834 9.36749 25296 ft 425 kts 269°
2026-05-09 00:17 36.83784 9.33042 25756 ft 428 kts 269°
2026-05-09 00:18 36.83726 9.29301 26198 ft 431 kts 269°
2026-05-09 00:18 36.83658 9.25525 26637 ft 434 kts 269°
2026-05-09 00:18 36.83584 9.21738 27060 ft 437 kts 268°
2026-05-09 00:18 36.83502 9.17935 27461 ft 440 kts 268°
2026-05-09 00:19 36.83417 9.14146 27856 ft 442 kts 268°
2026-05-09 00:19 36.83327 9.10281 28226 ft 445 kts 268°
2026-05-09 00:19 36.83233 9.06402 28576 ft 448 kts 268°
2026-05-09 00:19 36.83137 9.02494 28937 ft 450 kts 268°
2026-05-09 00:20 36.83041 8.98608 29271 ft 453 kts 268°
2026-05-09 00:20 36.82999 8.94666 29596 ft 456 kts 270°
2026-05-09 00:20 36.83029 8.90704 29933 ft 458 kts 271°
2026-05-09 00:20 36.83103 8.86719 30326 ft 458 kts 271°
2026-05-09 00:21 36.83197 8.82739 30767 ft 457 kts 272°
2026-05-09 00:21 36.83300 8.78743 31201 ft 456 kts 272°
2026-05-09 00:21 36.83399 8.74824 31593 ft 456 kts 272°
2026-05-09 00:21 36.83495 8.70845 32018 ft 455 kts 271°
2026-05-09 00:22 36.83585 8.66907 32433 ft 453 kts 271°
2026-05-09 00:22 36.83652 8.63019 32811 ft 452 kts 271°
2026-05-09 00:22 36.83685 8.59101 33171 ft 452 kts 270°
2026-05-09 00:22 36.83694 8.55165 33531 ft 451 kts 270°
2026-05-09 00:23 36.83690 8.51252 33880 ft 450 kts 270°
2026-05-09 00:23 36.83680 8.47345 34255 ft 448 kts 270°
2026-05-09 00:23 36.83669 8.43456 34600 ft 447 kts 270°
2026-05-09 00:23 36.83657 8.39568 34914 ft 446 kts 270°
2026-05-09 00:24 36.83645 8.35684 35213 ft 446 kts 270°
2026-05-09 00:24 36.83634 8.31856 35498 ft 445 kts 270°
2026-05-09 00:24 36.83623 8.27983 35766 ft 445 kts 270°
2026-05-09 00:24 36.83612 8.24111 35886 ft 446 kts 270°
2026-05-09 00:25 36.83601 8.20233 35891 ft 444 kts 270°
2026-05-09 00:25 36.83577 8.12590 35891 ft 442 kts 270°
2026-05-09 00:26 36.83549 8.04888 35891 ft 442 kts 270°
2026-05-09 00:26 36.83516 7.97233 35891 ft 442 kts 270°
2026-05-09 00:27 36.83480 7.89545 35891 ft 442 kts 269°
2026-05-09 00:27 36.83438 7.81889 35891 ft 442 kts 269°
2026-05-09 00:28 36.83374 7.74196 35891 ft 442 kts 269°
2026-05-09 00:28 36.83291 7.66511 35891 ft 442 kts 269°
2026-05-09 00:29 36.83202 7.58840 35891 ft 442 kts 269°
2026-05-09 00:29 36.83109 7.51159 35891 ft 442 kts 269°
2026-05-09 00:30 36.83012 7.43472 35891 ft 442 kts 269°
2026-05-09 00:30 36.82910 7.35838 35891 ft 442 kts 269°
2026-05-09 00:31 36.82804 7.28154 35891 ft 442 kts 269°
2026-05-09 00:31 36.82692 7.20475 35891 ft 443 kts 269°
2026-05-09 00:32 36.82576 7.12814 35891 ft 443 kts 269°
2026-05-09 00:32 36.82455 7.05121 35891 ft 443 kts 269°
2026-05-09 00:33 36.82328 6.97419 35891 ft 444 kts 269°
2026-05-09 00:33 36.82196 6.89707 35891 ft 443 kts 269°
2026-05-09 00:34 36.82061 6.82063 35891 ft 443 kts 269°
2026-05-09 00:34 36.81919 6.74356 35892 ft 444 kts 269°
2026-05-09 00:35 36.81771 6.66631 35892 ft 444 kts 269°
2026-05-09 00:35 36.81621 6.58965 35891 ft 443 kts 268°
2026-05-09 00:36 36.81465 6.51254 35891 ft 443 kts 268°
2026-05-09 00:36 36.81304 6.43597 35890 ft 444 kts 268°
2026-05-09 00:37 36.81136 6.35873 35891 ft 445 kts 268°
2026-05-09 00:37 36.80965 6.28142 35892 ft 443 kts 268°
2026-05-09 00:38 36.80790 6.20480 35891 ft 443 kts 268°
2026-05-09 00:38 36.80609 6.12817 35891 ft 442 kts 268°
2026-05-09 00:39 36.80423 6.05116 35891 ft 443 kts 268°
2026-05-09 00:39 36.80231 5.97426 35892 ft 445 kts 268°
2026-05-09 00:40 36.80067 5.90965 35890 ft 443 kts 268°
2026-05-09 00:40 36.79526 5.83351 35890 ft 442 kts 263°
2026-05-09 00:41 36.78281 5.71961 35891 ft 443 kts 262°
2026-05-09 00:41 36.77459 5.64344 35892 ft 443 kts 262°
2026-05-09 00:42 36.76666 5.56723 35892 ft 442 kts 263°
2026-05-09 00:42 36.75886 5.49109 35891 ft 442 kts 263°
2026-05-09 00:43 36.75107 5.41514 35890 ft 442 kts 263°
2026-05-09 00:43 36.74324 5.33932 35891 ft 442 kts 263°
2026-05-09 00:44 36.73532 5.26327 35890 ft 439 kts 263°
2026-05-09 00:44 36.72743 5.18799 35893 ft 440 kts 262°
2026-05-09 00:45 36.71964 5.11253 35888 ft 438 kts 265°
2026-05-09 00:45 36.72057 5.07463 35889 ft 436 kts 279°
2026-05-09 00:45 36.72809 5.03794 35884 ft 436 kts 287°
2026-05-09 00:46 36.74889 4.96691 35892 ft 440 kts 291°
2026-05-09 00:46 36.77198 4.89608 35891 ft 440 kts 292°
2026-05-09 00:47 36.79490 4.82458 35893 ft 445 kts 291°
2026-05-09 00:47 36.80610 4.78882 35761 ft 449 kts 291°
2026-05-09 00:47 36.81743 4.75222 35164 ft 450 kts 291°
2026-05-09 00:48 36.82871 4.71554 34330 ft 454 kts 291°
2026-05-09 00:48 36.83996 4.67884 33509 ft 458 kts 291°
2026-05-09 00:48 36.85142 4.64138 32694 ft 460 kts 291°
2026-05-09 00:48 36.86291 4.60383 31867 ft 462 kts 291°
2026-05-09 00:49 36.87441 4.56622 31012 ft 464 kts 291°
2026-05-09 00:49 36.88583 4.52882 30159 ft 465 kts 291°
2026-05-09 00:49 36.89744 4.49081 29277 ft 467 kts 291°
2026-05-09 00:49 36.90890 4.45324 28376 ft 468 kts 291°
2026-05-09 00:50 36.92051 4.41518 27522 ft 468 kts 290°
2026-05-09 00:50 36.93206 4.37721 26779 ft 465 kts 290°
2026-05-09 00:50 36.94350 4.33952 26077 ft 460 kts 290°
2026-05-09 00:50 36.95478 4.30221 25388 ft 456 kts 290°
2026-05-09 00:51 36.96580 4.26565 24709 ft 451 kts 290°
2026-05-09 00:51 36.97679 4.22908 24022 ft 446 kts 290°
2026-05-09 00:51 36.98763 4.19290 23336 ft 442 kts 290°
2026-05-09 00:51 36.99828 4.15727 22648 ft 437 kts 290°
2026-05-09 00:52 37.00895 4.12156 21948 ft 433 kts 290°
2026-05-09 00:52 37.01926 4.08698 21054 ft 424 kts 290°
2026-05-09 00:52 37.02950 4.05256 19931 ft 418 kts 290°
2026-05-09 00:52 37.03958 4.01865 18869 ft 411 kts 290°
2026-05-09 00:53 37.04940 3.98557 18143 ft 397 kts 290°
2026-05-09 00:53 37.05697 3.95300 17776 ft 384 kts 278°
2026-05-09 00:53 37.05791 3.91991 17393 ft 379 kts 264°
2026-05-09 00:53 37.05192 3.88821 16423 ft 386 kts 246°
2026-05-09 00:54 37.03776 3.85966 15552 ft 388 kts 231°
2026-05-09 00:54 37.01979 3.83442 14709 ft 388 kts 226°
2026-05-09 00:54 37.00021 3.81070 13950 ft 386 kts 223°
2026-05-09 00:54 36.98060 3.78844 13314 ft 381 kts 222°
2026-05-09 00:55 36.96098 3.76656 12665 ft 375 kts 222°
2026-05-09 00:55 36.94162 3.74487 12040 ft 370 kts 222°
2026-05-09 00:55 36.92271 3.72343 11430 ft 364 kts 223°
2026-05-09 00:55 36.90422 3.70215 10832 ft 359 kts 223°
2026-05-09 00:56 36.88616 3.68112 10410 ft 349 kts 223°
2026-05-09 00:56 36.86908 3.66104 10268 ft 331 kts 224°
2026-05-09 00:56 36.85271 3.64166 10132 ft 315 kts 224°
2026-05-09 00:56 36.83730 3.62330 9964 ft 298 kts 224°
2026-05-09 00:57 36.82266 3.60580 9593 ft 284 kts 224°
2026-05-09 00:57 36.80866 3.58905 9202 ft 276 kts 224°
2026-05-09 00:57 36.79631 3.57091 8756 ft 271 kts 238°
2026-05-09 00:57 36.78743 3.55050 8430 ft 262 kts 244°
2026-05-09 00:58 36.77988 3.53031 8084 ft 258 kts 245°
2026-05-09 00:58 36.77239 3.50976 7726 ft 258 kts 246°
2026-05-09 00:58 36.76501 3.48963 7374 ft 257 kts 245°
2026-05-09 00:58 36.75749 3.46929 7034 ft 254 kts 245°
2026-05-09 00:59 36.75020 3.44974 6676 ft 252 kts 245°
2026-05-09 00:59 36.74273 3.42978 6294 ft 255 kts 245°
2026-05-09 00:59 36.73532 3.41002 5969 ft 253 kts 245°
2026-05-09 00:59 36.72786 3.39020 5617 ft 251 kts 245°
2026-05-09 01:00 36.72046 3.37057 5270 ft 250 kts 245°
2026-05-09 01:00 36.71308 3.35099 4924 ft 248 kts 245°
2026-05-09 01:00 36.70573 3.33153 4574 ft 247 kts 245°
2026-05-09 01:00 36.69847 3.31233 4234 ft 246 kts 245°
2026-05-09 01:01 36.69132 3.29343 3894 ft 245 kts 245°
2026-05-09 01:01 36.68404 3.27421 3554 ft 243 kts 245°
2026-05-09 01:01 36.67683 3.25516 3211 ft 242 kts 245°
2026-05-09 01:01 36.66972 3.23639 2881 ft 241 kts 245°
2026-05-09 01:02 36.66257 3.21754 2530 ft 240 kts 245°
2026-05-09 01:02 36.65541 3.19867 2263 ft 245 kts 245°
2026-05-09 01:02 36.64821 3.17968 2184 ft 232 kts 245°
2026-05-09 01:02 36.64160 3.16234 2175 ft 212 kts 245°
2026-05-09 01:03 36.63532 3.14598 2190 ft 209 kts 245°
2026-05-09 01:03 36.62912 3.12980 2190 ft 210 kts 245°
2026-05-09 01:03 36.62270 3.11357 2186 ft 208 kts 238°
2026-05-09 01:03 36.61170 3.10261 2189 ft 205 kts 194°
2026-05-09 01:04 36.59828 3.10449 2206 ft 188 kts 148°
2026-05-09 01:04 36.59151 3.11664 2164 ft 167 kts 94°
2026-05-09 01:04 36.59548 3.12941 2189 ft 162 kts 38°
2026-05-09 01:04 36.60507 3.13541 2183 ft 151 kts 17°
2026-05-09 01:05 36.61498 3.13971 2189 ft 151 kts 21°
2026-05-09 01:05 36.62455 3.14500 2188 ft 150 kts 22°
2026-05-09 01:05 36.64445 3.15400 1502 ft 153 kts 19°
2026-05-09 01:06 36.65420 3.15892 1259 ft 149 kts 30°
2026-05-09 01:06 36.66161 3.16793 1205 ft 148 kts 52°
2026-05-09 01:06 36.66746 3.17780 976 ft 142 kts 54°
2026-05-09 01:06 36.67353 3.18785 742 ft 149 kts 50°
2026-05-09 01:07 36.68025 3.19826 579 ft 158 kts 51°
2026-05-09 01:07 36.68719 3.20956 376 ft 168 kts 51°
2026-05-09 01:07 36.69444 3.22098 214 ft 165 kts 54°
2026-05-09 01:07 36.70119 3.23208 92 ft 154 kts 53°
2026-05-09 01:08 36.70675 3.24127 93 ft 91 kts 53°
2026-05-09 01:08 36.70940 3.24561 92 ft 48 kts 52°
2026-05-09 01:08 36.71121 3.24859 94 ft 41 kts 53°
2026-05-09 01:08 36.71267 3.25078 94 ft 27 kts 25°
2026-05-09 01:09 36.71386 3.24965 92 ft 25 kts 264°
2026-05-09 01:09 36.71296 3.24785 92 ft 26 kts 233°
2026-05-09 01:09 36.71189 3.24610 91 ft 21 kts 234°
2026-05-09 01:09 36.71112 3.24450 94 ft 23 kts 243°
2026-05-09 01:10 36.71037 3.24266 92 ft 25 kts 242°
2026-05-09 01:10 36.70954 3.24065 92 ft 27 kts 242°
2026-05-09 01:10 36.70847 3.23862 92 ft 28 kts 232°
2026-05-09 01:10 36.70724 3.23657 89 ft 31 kts 233°
2026-05-09 01:11 36.70590 3.23441 89 ft 32 kts 232°
2026-05-09 01:11 36.70507 3.23268 87 ft 16 kts 289°
2026-05-09 01:11 36.70574 3.23206 86 ft 13 kts 322°
2026-05-09 01:11 36.70654 3.23138 88 ft 14 kts 333°
2026-05-09 01:12 36.70673 3.23126 89 ft 0 kts 333°